Regional Weather Roundup
Issued by NWS Jackson, KY

Home | Current Version | Previous Version | Graphics & Text | Print | Product List | Glossary On
Versions: 1 2 3 4 5 6 7 8 9 10 11 12 13 14 15 16 17 18 19 20 21 22 23 24 25 26 27 28 29 30 31 32 33 34 35 36 37 38 39 40 41 42 43 44 45 46 47 48 49 50
070
ASUS43 KJKL 111110
RWRJKL

EAST KENTUCKY HOURLY WEATHER ROUNDUP
NATIONAL WEATHER SERVICE JACKSON KY
600 AM EST SUN DEC 11 2016

NOTE: "FAIR" INDICATES FEW OR NO CLOUDS BELOW 12,000 FEET WITH
NO SIGNIFICANT WEATHER AND/OR OBSTRUCTIONS TO VISIBILITY.

* THESE REPORTS ARE NOT UNDER NWS QUALITY CONTROL AND MAY NOT
  REPORT WEATHER SUCH AS PRECIPITATION AND FOG.

KYZ079-080-083-085-087-088-110-112-115-119-120-111200
...EASTERN KENTUCKY...

CITY           SKY/WX    TMP DP  RH WIND       PRES   REMARKS
JACKSON        PTCLDY    28  14  55 SE3       30.30R
LONDON         CLOUDY    24  15  68 CALM      30.30F
SOMERSET*      CLOUDY    23  18  80 CALM      30.33R
MONTICELLO*    PTCLDY    26  18  71 VRB7      30.32F WCI  18
MIDDLESBORO*   CLOUDY    21  19  91 CALM      30.34F
HARLAN APT*    CLOUDY    28  14  54 CALM      30.31F
PIKE CO APT*     N/A     28  17  63 SE3       30.32R
BIG SANDY APT* CLOUDY    27  19  72 CALM      30.33R
MOREHEAD APT*  MOSUNNY   28  16  59 VRB5      30.32F WCI  23
ASHLAND*       MOCLDY    30  18  59 CALM      30.36R
$$

KYZ035-036-041-042-044-050-067-078-099-111200
...CENTRAL KENTUCKY...

CITY           SKY/WX    TMP DP  RH WIND       PRES   REMARKS
MT STERLING*   CLOUDY    30  19  64 CALM      30.31F
FLEMING/MASON* CLOUDY    28  17  64 SE8       30.32F WCI  20
DANVILLE*      MOCLDY    28  18  64 S3        30.29S
LEXINGTON      CLOUDY    31  16  54 S7        30.29F WCI  24
FRANKFORT      CLOUDY    32  16  51 SE5       30.28F WCI  27
LOUISVILLE     CLOUDY    32  16  51 SE7       30.27F WCI  26
LEBANON*         N/A     34  14  44 S9        30.27F WCI  26
GLASGOW*       CLOUDY    33  18  53 S6        30.27F WCI  27
BOWLING GREEN  CLOUDY    35  19  52 S6        30.27F WCI  30
$$

KYZ091>093-OHZ055-061-077-WVZ005-015-034-035-042-111200
...SOUTHERN OHIO/WEST VIRGINIA...

CITY           SKY/WX    TMP DP  RH WIND       PRES   REMARKS
COVINGTON      CLOUDY    30  18  60 SE10      30.28F WCI  21
COLUMBUS       CLOUDY    25  23  92 E8        30.33F WCI  16
DAYTON         CLOUDY    26  21  81 SE10      30.29F WCI  16
WILMINGTON     CLOUDY    27  18  69 SE8       30.30S WCI  19
HUNTINGTON     CLOUDY    28  17  63 E3        30.34S
CHARLESTON     MOCLDY    26  18  71 NE3       30.35F
PINEVILLE*       N/A     25  18  76 MISG      30.36F
BECKLEY        CLEAR     27   9  46 SE8       30.29F WCI  19
BLUEFIELD      CLOUDY    28   9  44 SE3       30.27F
LOGAN CO APT*    N/A     30  14  51 CALM      30.31R
$$

VAZ002-007-008-TNZ017-027-036-066-071-111200
...SOUTHWEST VIRGINIA/EAST TENNESSEE...

CITY           SKY/WX    TMP DP  RH WIND       PRES   REMARKS
WISE*          CLOUDY    32  10  40 S7        30.28S WCI  26
ABINGDON*      CLEAR     28  15  58 E8        30.31F WCI  19
BRISTOL        CLEAR     21  16  81 CALM      30.33F
MORRISTOWN*    SUNNY     27  16  63 CALM      30.33R
SEVIERVILLE*   SUNNY     18  16  93 CALM      30.34S
KNOXVILLE      CLOUDY    24  17  74 NW5       30.35F WCI  18
OAK RIDGE      CLOUDY    23  19  85 CALM      30.37R
CROSSVILLE     CLOUDY    33  17  51 S8        30.29R WCI  26
NASHVILLE      CLOUDY    31  18  58 S6        30.29F WCI  25
$$

...KEY TO REMARKS...
VSB - VISIBILITY IN MILES
WCI - WIND CHILL INDEX
HX  - HEAT INDEX

$$




USA.gov is the U.S. government's official web portal to all federal, state and local government web resources and services.